Temperature
22 22 21 20 19 19 21 22 24 24 25 25 25 24 23 22 22 21 21 21 22 21 21 21 21 20 20 20 20 20 19 19 19 19 19 19 19 19 19 19 19 19 18 18 18 18 18 18 18
22 22 21 20 20 20 22 24 25 25 26 25 24 23 22 21 21 21 20 21 22 21 21 21 21 20 20 20 20 19 19 19 19 19 19 19 19 19 19 19 19 19 18 18 18 18 18 18 18
22 22 21 19 20 21 24 25 26 26 26 26 24 23 22 21 21 20 21 21 21 21 21 21 21 20 20 20 20 19 19 19 19 19 19 19 19 19 19 19 19 19 19 18 18 18 18 18 18
22 22 21 19 21 24 25 26 27 27 26 25 23 22 22 22 22 21 21 21 21 21 21 21 21 20 20 20 20 19 19 19 19 19 19 19 19 19 19 19 19 19 19 19 18 18 18 18 18
22 22 20 20 22 25 27 28 28 26 25 24 23 21 20 22 22 22 21 21 21 21 21 21 20 20 20 20 20 19 19 19 19 19 19 19 19 19 19 19 19 19 19 19 19 18 18 18 18
22 21 20 21 24 27 28 28 27 26 24 24 22 21 20 21 21 21 21 21 21 21 21 20 20 20 20 20 20 19 19 19 19 19 19 19 19 19 19 19 19 19 19 19 19 19 18 18 18
22 21 21 23 25 27 28 28 27 25 24 23 22 20 20 20 21 21 21 21 21 21 20 20 20 20 20 20 19 19 19 19 19 19 19 19 18 18 18 18 18 18 18 19 19 19 18 18 18
24 21 22 23 26 27 28 28 27 25 24 23 23 21 20 20 20 20 20 21 21 21 20 20 20 20 20 19 19 19 19 19 19 19 18 18 18 18 18 18 18 18 18 18 18 18 18 18 18
25 21 22 24 26 27 28 27 26 25 24 23 23 23 22 21 20 20 20 20 20 20 20 20 20 20 20 19 19 19 19 19 18 18 18 18 18 18 18 18 18 18 18 18 18 18 18 18 18
25 21 23 26 28 28 29 28 26 24 23 22 22 22 22 21 20 19 19 20 20 20 20 20 20 20 19 19 19 19 19 18 18 18 18 18 18 18 18 18 18 18 18 18 18 18 18 18 18
25 23 26 27 29 29 28 27 26 24 22 22 22 22 21 20 20 20 19 20 20 20 20 20 20 19 19 19 19 19 18 18 18 18 18 18 18 18 18 18 18 18 18 17 17 17 18 18 18
26 27 28 28 29 29 28 27 25 24 24 24 24 23 21 20 20 20 19 19 19 19 19 19 19 19 19 19 19 18 18 18 18 18 18 18 18 18 18 17 17 17 17 17 17 17 17 17 18
27 27 28 29 29 28 27 26 25 24 25 24 23 22 21 21 20 20 20 19 19 19 19 19 19 19 19 19 19 18 18 18 18 18 18 18 18 18 18 17 17 17 17 17 17 17 17 17 17
27 27 27 28 28 28 26 25 24 23 23 22 22 21 21 21 20 20 19 19 19 19 19 19 19 19 19 18 18 18 18 18 18 18 18 18 18 18 17 17 17 17 17 17 17 17 17 17 17
27 26 26 26 27 27 26 24 23 23 22 21 21 20 20 20 20 19 19 19 19 19 19 19 19 19 18 18 18 18 18 18 18 18 18 18 18 17 17 17 17 17 17 17 17 17 17 17 17
25 24 24 26 26 27 25 23 23 23 21 20 20 20 20 20 19 19 19 19 18 19 19 19 19 18 18 18 18 18 18 18 18 18 18 18 17 17 17 17 17 17 17 17 17 17 17 17 17
23 23 24 26 27 26 25 23 23 23 21 20 19 19 19 19 19 18 18 18 18 18 18 18 19 18 18 18 18 18 18 18 18 18 18 17 17 17 17 17 16 16 16 16 16 16 17 17 17
23 24 25 26 27 26 24 22 22 22 21 20 19 19 19 19 19 18 18 18 18 18 18 18 18 18 18 18 18 18 17 18 17 17 17 17 17 17 16 16 16 16 16 16 16 16 16 17 17
25 26 26 26 27 25 23 22 22 21 21 20 19 19 19 19 19 18 18 18 18 18 18 18 18 18 18 18 18 18 18 18 17 17 17 17 17 16 16 16 16 16 16 16 16 16 16 16 17
27 26 26 26 26 24 22 22 21 21 20 20 19 19 19 18 18 18 18 18 18 18 18 18 18 18 18 18 18 18 18 17 17 17 17 17 16 16 16 16 16 16 16 16 16 16 16 16 16
27 26 26 26 24 23 22 21 20 20 20 20 20 19 19 19 18 18 18 17 18 18 18 18 18 18 18 18 18 17 17 17 17 17 17 17 16 16 16 16 16 16 16 15 15 16 16 16 16
26 27 27 26 23 20 21 19 19 19 19 19 19 19 19 18 18 18 18 18 18 18 18 18 18 17 18 18 18 18 17 17 17 17 17 17 16 16 16 16 16 15 15 15 15 15 16 16 16
27 26 25 23 21 19 19 19 19 19 19 19 19 19 19 19 18 18 18 18 18 18 18 18 17 17 17 18 18 18 18 17 17 17 17 17 16 16 16 16 16 16 15 15 15 15 16 16 16
27 24 22 19 18 19 19 19 18 18 19 19 19 19 19 19 18 18 18 18 18 18 18 17 17 17 17 17 17 17 17 17 17 17 17 17 16 16 16 16 16 16 16 16 15 15 15 16 15
26 23 21 21 19 19 19 19 18 20 20 20 19 19 19 19 18 18 18 18 18 18 18 18 18 17 17 17 17 17 17 17 17 17 17 17 17 17 16 16 16 16 16 16 16 16 16 16 16
25 23 22 21 20 19 18 19 19 21 21 21 20 20 19 19 19 19 18 18 18 18 18 18 18 18 17 18 17 17 17 17 17 17 17 17 17 17 17 16 16 16 16 16 16 16 16 16 16
25 23 22 20 20 18 18 19 19 21 21 20 20 19 19 19 19 19 19 19 18 18 18 18 18 18 18 18 17 17 17 17 17 17 17 17 17 17 17 17 17 17 17 17 16 16 16 16 16
25 23 21 20 20 20 19 19 18 20 20 20 19 19 19 20 19 19 19 19 19 19 19 18 18 18 18 18 18 18 18 18 17 17 17 17 17 17 17 17 17 17 17 17 17 17 17 17 16
25 24 21 19 19 19 19 19 20 19 19 19 19 20 20 20 20 20 20 20 19 19 19 19 19 18 18 18 18 18 18 18 18 17 17 17 17 17 17 17 17 17 17 17 17 17 17 17 16
24 23 21 21 20 19 18 19 21 19 19 20 20 21 21 21 21 21 20 20 20 19 19 19 19 19 19 18 18 18 18 18 18 17 17 17 17 17 17 17 17 17 17 17 17 17 17 17 17
Wind_Speed
7 6 3 1 2 2 3 5 5 5 2 3 9 11 9 5 3 4 5 16 20 18 20 23 23 23 22 21 20 20 19 18 18 17 17 17 16 16 15 14 14 13 12 12 11 10 10 9 9
5 4 2 2 2 1 5 5 6 5 7 10 11 11 8 4 4 7 8 18 21 19 20 22 24 23 22 21 20 20 19 18 17 17 16 16 15 15 14 13 13 12 12 11 10 10 9 9 9
3 3 2 2 2 4 4 3 7 5 7 7 7 6 6 5 5 5 9 18 18 16 19 23 25 23 22 21 20 20 19 18 17 17 16 15 15 14 13 13 12 12 11 10 10 9 9 9 9
1 2 2 0 7 8 6 6 7 8 6 7 9 7 4 4 5 9 18 18 18 14 18 23 24 23 23 21 20 20 19 18 17 16 15 15 14 13 13 12 12 11 10 10 9 8 8 8 8
2 3 2 3 7 6 5 4 8 8 5 6 10 7 3 1 11 19 19 18 18 13 15 21 24 23 23 21 20 19 19 18 17 16 15 14 13 13 12 12 11 10 10 9 8 7 6 6 7
2 2 1 4 6 5 0 6 9 10 8 8 9 8 3 6 15 18 18 17 18 16 13 19 23 23 22 21 20 19 18 18 16 15 15 14 13 12 11 11 11 10 9 8 7 5 4 5 6
2 1 3 5 5 2 2 5 8 9 7 6 8 7 5 7 14 17 16 16 15 15 13 14 19 20 21 21 20 19 18 17 16 15 14 13 12 11 11 10 10 10 9 8 7 6 4 3 4
5 1 5 4 3 2 1 3 7 8 6 6 6 9 8 11 15 17 15 14 14 13 12 11 14 16 17 17 19 18 17 16 15 14 13 12 11 11 11 10 10 9 9 8 7 6 4 2 2
4 0 5 5 3 2 1 3 4 6 8 4 3 5 10 16 19 19 15 12 13 13 11 10 11 13 14 15 16 17 16 15 13 12 11 11 9 9 10 10 10 9 9 8 7 6 4 2 0
5 4 8 5 3 1 1 3 5 5 6 3 4 6 14 18 20 22 21 18 16 15 12 11 11 11 13 13 13 12 12 12 10 9 8 8 7 8 9 10 10 9 9 8 7 6 5 3 1
6 8 9 6 3 1 2 2 3 8 4 6 10 14 16 17 18 20 19 17 16 15 13 11 11 11 10 8 10 9 8 9 8 7 7 6 5 5 6 5 6 6 7 5 5 5 4 3 2
5 7 6 5 3 1 1 3 3 4 6 9 13 15 15 16 16 16 17 15 14 14 13 11 10 8 8 10 8 8 7 6 6 6 7 7 4 3 4 3 3 3 4 4 4 4 4 4 4
3 4 5 5 3 1 3 3 5 3 5 10 12 12 12 12 10 10 12 14 13 13 13 12 11 10 7 7 7 7 6 7 7 7 8 9 5 3 3 2 3 3 3 4 4 3 3 3 4
6 7 8 7 5 2 2 2 5 4 7 11 11 9 8 9 9 10 10 10 12 12 12 10 10 10 8 7 6 6 8 9 8 8 9 9 7 4 3 2 2 2 2 4 4 3 3 2 2
6 8 11 8 4 2 4 0 3 7 10 11 10 9 8 8 9 10 11 12 12 11 10 10 11 10 9 8 7 8 9 10 7 8 9 9 8 6 4 3 2 2 2 3 3 2 2 2 1
6 5 6 8 4 3 6 5 4 9 12 11 9 9 9 7 8 10 10 10 11 12 11 11 13 11 9 8 7 8 9 9 8 9 8 8 8 8 6 3 2 3 5 4 3 2 2 2 2
4 4 7 7 5 3 4 3 4 9 11 10 9 8 8 7 7 8 10 11 11 13 12 10 11 11 10 9 6 7 8 8 8 8 7 8 8 8 6 3 3 5 5 3 3 3 2 2 1
10 8 7 6 5 3 3 2 5 7 9 8 8 7 7 8 9 9 10 10 9 10 11 11 10 10 9 8 7 6 6 5 7 7 7 8 7 7 6 4 4 6 4 4 3 3 2 1 1
13 11 8 6 3 5 5 5 5 5 6 6 7 7 8 8 7 8 9 10 9 10 11 11 11 10 9 7 7 7 6 5 4 4 7 8 7 7 6 4 4 4 4 3 3 3 4 3 2
14 9 5 2 5 6 6 4 2 4 6 8 8 7 8 7 8 8 10 10 9 10 10 10 11 11 9 7 6 5 6 4 4 3 5 7 7 6 6 5 3 3 4 4 4 3 2 3 2
11 6 4 2 5 6 4 2 2 1 2 5 7 7 7 10 11 11 11 11 11 12 12 12 10 10 9 8 6 6 5 4 3 2 2 4 7 7 7 6 4 3 3 3 3 3 4 3 3
9 5 1 3 4 3 4 1 6 3 2 4 5 6 7 8 10 10 11 11 12 12 11 11 10 9 8 8 8 9 7 5 5 4 4 3 6 6 7 6 6 4 3 3 2 3 3 4 3
7 1 4 4 5 4 4 2 6 2 3 4 5 6 8 10 11 12 12 11 11 11 11 11 10 9 8 8 9 9 6 5 4 4 5 4 3 5 6 6 5 4 3 3 3 4 4 3 3
3 4 6 6 6 4 2 1 6 4 5 4 4 6 8 10 11 11 10 9 9 9 10 10 11 9 8 8 7 8 8 7 6 6 6 4 3 2 4 5 5 5 4 4 4 4 4 3 3
5 3 4 6 5 2 3 2 8 8 5 6 8 8 8 10 11 11 12 11 10 11 11 11 11 10 9 8 7 8 8 9 9 7 7 6 4 4 5 5 4 4 4 4 4 4 3 3 3
7 5 6 4 4 2 3 5 8 8 4 3 7 8 9 10 11 13 13 12 12 12 12 12 12 10 10 9 8 7 7 6 6 7 6 7 6 6 7 6 6 6 6 5 4 3 3 3 3
4 4 7 7 3 3 4 5 8 3 0 2 6 8 9 11 12 12 12 12 13 13 13 14 14 12 11 10 9 7 7 7 7 7 6 6 5 6 7 7 8 6 6 5 5 4 4 3 4
5 6 5 5 4 3 3 4 5 4 4 4 7 9 10 10 11 13 13 13 12 12 12 12 13 12 11 10 10 9 8 8 7 6 6 6 6 6 7 8 8 8 7 6 6 4 4 4 4
3 3 5 5 6 6 5 6 7 10 9 9 10 10 11 12 12 13 12 12 11 11 12 13 13 12 11 11 10 9 8 8 7 7 7 7 6 7 8 9 9 9 8 7 7 6 6 6 6
6 7 8 6 4 6 6 7 4 9 9 10 10 10 10 11 12 12 12 11 10 11 12 13 13 13 12 11 10 9 7 7 7 7 7 6 6 6 8 8 9 9 9 8 9 9 8 7 7
Wind_Direction
190 195 172 50 58 30 255 220 189 210 196 103 101 106 110 102 146 162 136 140 139 144 148 145 142 140 138 136 133 130 128 126 124 121 119 118 117 116 115 113 112 110 110 109 107 102 96 92 90
192 192 158 54 96 297 267 213 187 188 147 120 94 94 86 61 67 107 126 141 141 142 145 145 143 141 140 138 137 135 132 131 129 127 126 124 123 122 120 118 116 114 114 112 108 103 95 90 85
219 188 134 102 215 213 251 230 176 145 128 115 102 84 104 126 117 126 142 140 138 140 143 144 143 142 140 140 139 137 136 135 135 133 132 130 129 128 126 124 122 119 118 116 110 104 95 87 81
147 74 47 61 257 252 246 230 164 134 97 87 108 95 100 135 146 141 142 142 136 138 142 144 143 143 142 141 140 140 139 139 138 137 137 135 134 134 132 130 128 126 124 121 116 109 97 85 76
108 91 25 292 268 272 260 179 137 120 120 110 110 111 89 66 129 139 146 144 138 138 142 144 144 143 143 144 143 143 143 143 143 142 142 142 141 141 140 138 136 133 131 126 121 114 100 85 72
31 85 45 276 277 291 187 118 111 104 112 114 108 118 131 149 139 146 147 144 141 141 142 145 145 145 145 146 146 147 147 148 149 148 149 149 148 147 147 147 147 145 141 138 134 127 109 87 71
162 163 240 257 289 319 116 110 113 118 120 128 131 118 138 162 152 147 145 142 140 141 144 145 147 148 149 149 150 151 151 152 153 155 155 155 157 159 159 159 160 157 154 153 151 147 136 97 69
177 92 291 277 286 293 128 106 122 124 126 129 130 138 162 174 151 142 141 140 141 144 148 147 147 147 150 153 154 154 155 157 159 161 163 165 169 172 174 174 175 172 168 167 166 165 163 144 73
172 137 271 267 269 274 131 102 100 103 117 122 136 154 158 152 145 142 141 141 147 151 152 151 149 149 150 154 159 158 159 162 164 167 172 175 179 184 187 189 191 187 184 181 180 180 182 191 106
156 192 241 241 248 303 29 103 133 117 108 108 110 122 137 146 150 151 155 158 160 161 162 160 158 156 157 160 156 159 160 164 166 170 173 174 180 190 195 202 202 198 196 192 192 193 194 197 187
193 209 247 267 287 340 27 54 104 128 147 177 162 155 148 150 156 157 161 163 164 163 162 165 164 164 164 153 156 160 157 160 165 170 169 161 163 174 179 188 200 202 198 192 198 201 192 182 175
246 257 264 278 290 340 105 124 107 151 188 177 166 159 152 155 159 160 161 158 157 157 162 164 164 165 164 155 160 159 153 156 157 155 145 134 127 126 139 150 171 173 178 177 183 194 193 179 169
300 300 303 298 303 202 131 139 143 163 150 149 152 148 152 153 148 147 148 151 155 159 162 164 164 164 160 153 159 156 153 153 145 129 123 127 121 121 126 131 140 154 160 164 172 178 177 175 167
292 308 306 302 302 276 155 150 127 171 142 142 147 146 143 137 135 138 146 157 167 166 160 160 162 162 156 154 147 144 145 141 129 119 120 120 118 115 113 102 100 108 141 159 164 165 163 175 172
316 323 314 296 279 248 126 280 205 163 148 147 154 151 148 143 136 153 165 168 172 164 155 161 155 151 151 146 143 139 139 134 125 122 120 113 110 107 109 101 87 68 95 122 119 116 114 128 146
329 322 296 282 246 223 129 238 219 157 153 154 161 162 158 149 149 160 161 168 169 160 159 164 154 148 145 137 132 134 136 131 129 128 119 107 105 107 98 94 75 66 80 98 104 92 95 88 102
315 268 269 283 244 198 150 221 176 161 158 159 160 166 161 154 155 159 161 168 172 168 160 153 147 148 144 135 129 130 133 132 135 129 119 109 104 106 98 88 71 83 80 78 99 81 99 103 109
274 280 280 276 268 150 126 155 143 157 158 158 157 164 161 162 169 163 160 165 169 160 153 150 151 144 135 127 121 119 121 129 135 133 133 121 113 107 103 93 75 84 81 69 72 74 65 100 125
263 276 283 294 341 89 109 129 154 153 148 159 163 166 165 165 168 161 160 163 166 155 153 154 152 148 142 141 142 142 143 147 143 150 147 133 124 112 102 96 81 83 87 83 78 75 60 39 47
271 278 278 334 47 93 103 113 174 160 176 178 177 178 170 159 160 167 165 167 169 167 162 160 159 154 155 153 151 149 145 152 155 153 150 144 135 127 117 113 105 98 91 70 59 68 77 31 46
283 262 241 172 80 62 91 11 310 259 174 183 176 179 177 172 168 170 170 170 172 175 170 169 166 159 158 150 133 123 105 98 106 143 160 161 147 137 129 123 116 109 110 101 82 78 92 67 19
290 277 162 100 85 29 52 316 288 275 257 207 184 181 184 173 169 172 175 175 178 179 173 166 168 163 159 150 148 149 149 160 182 180 178 173 160 152 145 134 123 116 117 114 107 93 96 104 55
287 351 64 73 97 68 24 78 292 290 253 227 197 194 186 179 175 176 177 176 179 178 173 169 168 165 162 157 158 155 155 168 166 162 165 174 175 173 166 152 134 128 130 129 112 102 95 102 107
266 60 46 50 69 44 300 170 275 251 227 209 197 192 183 177 176 175 176 173 176 176 173 171 168 171 171 165 165 166 166 164 159 166 173 184 191 197 188 171 155 150 150 148 142 128 119 113 109
319 71 14 349 18 253 270 236 255 257 240 205 194 186 177 174 176 178 179 179 180 179 178 175 172 175 177 175 177 178 172 166 170 175 181 182 191 205 207 184 173 168 174 170 157 145 143 143 136
266 159 175 219 223 222 284 250 263 276 270 201 183 174 172 175 178 181 183 183 185 185 182 177 177 180 182 183 188 184 175 169 177 183 184 191 200 207 201 190 186 184 182 180 167 166 178 168 165
230 218 178 147 135 132 246 277 304 298 277 159 164 170 184 184 184 182 182 184 188 189 186 182 180 183 186 188 189 191 186 183 188 191 192 197 206 211 202 193 192 192 188 185 179 190 202 194 202
189 168 103 124 155 192 235 249 239 241 210 200 189 187 191 185 183 184 187 189 191 191 187 184 183 186 187 191 194 198 198 199 199 197 205 207 207 206 194 195 194 196 196 192 188 200 210 202 216
251 147 132 140 155 156 202 248 220 205 199 196 200 193 189 188 189 189 190 193 193 190 187 188 189 187 191 195 198 200 201 203 203 205 213 213 211 201 194 194 194 197 201 199 197 210 209 212 226
201 188 154 158 205 164 174 250 244 198 200 195 197 192 188 189 195 192 188 187 187 188 188 191 192 192 195 196 197 201 203 202 207 216 219 213 213 207 198 194 196 204 207 205 204 214 215 214 224
Height
1520 1520 1521 1521 1522 1528 1528 1517 1509 1506 1503 1501 1501 1504 1509 1512 1517 1522 1518 1520 1525 1528 1532 1535 1538 1539 1540 1542 1543 1544 1545 1546 1548 1549 1550 1551 1552 1552 1553 1554 1555 1556 1557 1557 1558 1558 1559 1559 1559
1520 1520 1521 1522 1526 1535 1526 1508 1505 1501 1499 1500 1503 1505 1508 1512 1514 1515 1516 1520 1525 1528 1532 1535 1537 1539 1541 1542 1543 1544 1545 1547 1548 1549 1550 1551 1552 1553 1554 1555 1556 1557 1558 1558 1559 1560 1560 1560 1560
1520 1520 1522 1522 1527 1528 1517 1503 1499 1498 1499 1499 1504 1507 1508 1512 1514 1515 1517 1521 1525 1528 1532 1535 1537 1539 1541 1542 1543 1545 1546 1547 1548 1550 1551 1552 1553 1554 1555 1556 1556 1557 1558 1559 1560 1561 1561 1562 1562
1520 1520 1521 1524 1524 1511 1504 1498 1495 1496 1499 1500 1502 1508 1510 1512 1513 1515 1519 1522 1525 1529 1532 1535 1537 1539 1541 1542 1544 1545 1546 1547 1549 1550 1551 1552 1553 1554 1555 1556 1557 1558 1559 1560 1561 1562 1562 1563 1564
1519 1519 1523 1526 1517 1501 1494 1493 1492 1494 1498 1500 1501 1507 1511 1512 1512 1516 1519 1523 1525 1529 1533 1535 1538 1540 1541 1542 1544 1545 1547 1548 1549 1550 1551 1552 1553 1554 1555 1556 1557 1558 1559 1560 1562 1563 1564 1565 1565
1519 1518 1528 1528 1512 1498 1492 1491 1491 1494 1498 1501 1503 1507 1511 1511 1512 1516 1520 1523 1526 1530 1533 1536 1538 1540 1541 1543 1544 1546 1547 1548 1549 1551 1552 1552 1553 1555 1556 1557 1558 1559 1560 1561 1562 1564 1565 1566 1566
1519 1520 1524 1518 1509 1499 1493 1491 1492 1494 1497 1500 1501 1506 1510 1512 1513 1516 1520 1524 1527 1530 1533 1536 1538 1540 1542 1543 1545 1546 1547 1549 1550 1551 1552 1553 1554 1555 1556 1557 1558 1559 1560 1561 1563 1564 1565 1567 1567
1515 1518 1519 1514 1507 1500 1492 1491 1492 1493 1496 1498 1499 1501 1506 1510 1513 1517 1520 1524 1527 1530 1533 1535 1537 1539 1542 1544 1545 1546 1548 1549 1550 1551 1552 1553 1554 1555 1556 1557 1558 1559 1560 1561 1563 1564 1566 1567 1568
1514 1520 1522 1511 1503 1496 1490 1490 1493 1493 1494 1496 1497 1498 1502 1507 1512 1515 1519 1523 1527 1530 1532 1535 1537 1539 1542 1544 1545 1547 1548 1549 1550 1551 1552 1553 1554 1555 1556 1557 1558 1559 1560 1561 1562 1564 1565 1567 1567
1510 1519 1510 1498 1494 1491 1489 1489 1491 1494 1495 1496 1497 1499 1502 1506 1510 1512 1515 1520 1524 1528 1532 1535 1537 1539 1541 1543 1545 1547 1548 1549 1550 1551 1552 1553 1553 1554 1555 1556 1557 1558 1559 1560 1562 1563 1564 1566 1567
1504 1507 1497 1492 1490 1490 1489 1489 1490 1492 1496 1495 1495 1497 1501 1505 1507 1510 1513 1517 1522 1527 1530 1534 1536 1539 1541 1543 1545 1547 1548 1549 1550 1551 1552 1552 1553 1554 1555 1555 1556 1557 1558 1559 1561 1562 1564 1565 1566
1500 1495 1493 1490 1488 1488 1488 1489 1490 1490 1491 1492 1493 1496 1499 1503 1506 1508 1511 1516 1520 1525 1529 1532 1535 1538 1541 1543 1544 1546 1548 1549 1550 1551 1551 1551 1552 1553 1554 1555 1556 1557 1558 1559 1560 1561 1562 1564 1565
1496 1494 1491 1489 1486 1486 1486 1487 1488 1489 1490 1492 1494 1497 1499 1501 1506 1508 1511 1515 1519 1523 1527 1531 1534 1537 1539 1542 1544 1545 1547 1549 1550 1550 1551 1551 1552 1552 1553 1554 1555 1556 1556 1558 1559 1560 1561 1562 1564
1495 1493 1490 1486 1485 1485 1486 1488 1488 1489 1491 1493 1494 1496 1499 1502 1505 1507 1511 1514 1517 1521 1525 1529 1532 1535 1538 1541 1543 1545 1547 1549 1549 1550 1550 1551 1551 1552 1552 1553 1553 1554 1555 1556 1558 1559 1560 1562 1563
1494 1494 1490 1485 1483 1483 1485 1490 1488 1488 1491 1493 1495 1497 1500 1502 1504 1506 1508 1511 1515 1519 1523 1528 1529 1533 1537 1540 1542 1544 1546 1548 1549 1550 1550 1550 1550 1551 1551 1552 1553 1554 1555 1556 1557 1558 1559 1560 1562
1496 1499 1502 1486 1481 1481 1488 1497 1488 1489 1491 1494 1496 1497 1499 1501 1502 1504 1506 1509 1513 1517 1521 1526 1529 1532 1536 1539 1542 1544 1546 1548 1549 1550 1550 1550 1550 1550 1551 1552 1553 1553 1554 1555 1556 1557 1558 1560 1561
1505 1510 1503 1489 1478 1479 1486 1493 1489 1490 1491 1493 1495 1497 1498 1499 1501 1503 1505 1506 1509 1514 1518 1523 1527 1531 1535 1538 1541 1544 1546 1548 1549 1549 1549 1549 1550 1550 1551 1551 1552 1553 1554 1555 1556 1557 1558 1559 1561
1512 1506 1498 1491 1479 1480 1487 1491 1490 1491 1492 1494 1496 1496 1497 1498 1500 1501 1503 1505 1508 1512 1517 1521 1525 1530 1534 1537 1540 1543 1545 1547 1548 1549 1549 1549 1549 1550 1550 1551 1552 1553 1553 1554 1555 1556 1558 1559 1560
1497 1496 1495 1487 1477 1485 1491 1493 1492 1492 1494 1495 1496 1495 1496 1498 1500 1501 1503 1506 1508 1511 1516 1520 1524 1528 1532 1536 1539 1541 1544 1546 1547 1548 1549 1549 1549 1549 1550 1551 1551 1552 1553 1554 1555 1556 1557 1558 1560
1490 1494 1492 1486 1480 1486 1494 1495 1492 1491 1492 1493 1494 1495 1495 1497 1499 1501 1503 1506 1507 1509 1515 1519 1524 1527 1531 1535 1538 1540 1543 1545 1547 1548 1549 1549 1549 1549 1550 1550 1551 1552 1552 1553 1554 1555 1557 1558 1559
1486 1488 1487 1487 1488 1491 1495 1502 1497 1492 1491 1492 1493 1494 1495 1496 1498 1500 1502 1504 1508 1510 1514 1518 1523 1527 1531 1534 1537 1540 1542 1544 1546 1547 1548 1549 1549 1549 1550 1550 1550 1551 1552 1552 1553 1555 1556 1557 1558
1490 1478 1478 1482 1495 1509 1503 1518 1503 1495 1493 1492 1492 1494 1495 1496 1497 1499 1501 1503 1507 1510 1514 1518 1522 1526 1530 1533 1535 1537 1540 1542 1544 1546 1547 1548 1549 1549 1550 1550 1550 1551 1551 1552 1553 1554 1556 1557 1557
1481 1476 1480 1486 1498 1510 1509 1515 1508 1495 1495 1492 1491 1492 1493 1495 1496 1498 1500 1503 1506 1510 1514 1517 1522 1525 1529 1532 1535 1537 1540 1542 1544 1546 1547 1548 1548 1549 1550 1550 1550 1550 1551 1552 1553 1554 1555 1556 1557
1473 1480 1488 1497 1507 1523 1516 1518 1513 1498 1492 1490 1490 1491 1492 1494 1496 1498 1501 1503 1506 1510 1513 1517 1520 1524 1527 1531 1534 1537 1539 1541 1543 1545 1546 1547 1548 1549 1549 1550 1550 1550 1551 1551 1552 1553 1554 1556 1557
1472 1492 1512 1517 1526 1527 1514 1515 1509 1488 1485 1486 1488 1489 1491 1493 1495 1497 1500 1502 1505 1508 1512 1515 1519 1522 1526 1529 1532 1535 1538 1540 1541 1543 1545 1546 1547 1548 1549 1550 1550 1551 1551 1551 1552 1553 1554 1555 1556
1474 1485 1511 1523 1526 1526 1517 1516 1499 1483 1482 1483 1485 1487 1489 1491 1494 1496 1499 1501 1504 1507 1510 1514 1517 1521 1524 1527 1531 1533 1536 1539 1540 1542 1544 1545 1546 1548 1548 1549 1550 1550 1551 1551 1551 1552 1553 1553 1554
1474 1480 1483 1502 1512 1527 1521 1509 1494 1482 1482 1483 1485 1486 1488 1489 1491 1494 1497 1500 1503 1505 1508 1512 1515 1519 1522 1525 1529 1532 1534 1537 1539 1540 1542 1544 1545 1547 1548 1548 1549 1549 1550 1550 1551 1551 1552 1552 1553
1461 1469 1486 1500 1517 1524 1521 1513 1506 1489 1485 1484 1484 1485 1487 1488 1490 1492 1495 1498 1501 1504 1507 1510 1514 1517 1520 1523 1527 1529 1532 1534 1537 1539 1540 1542 1544 1545 1546 1546 1547 1548 1549 1549 1550 1550 1551 1551 1551
1464 1469 1480 1494 1500 1517 1526 1512 1483 1481 1479 1480 1481 1482 1483 1486 1488 1490 1493 1496 1499 1502 1505 1508 1512 1515 1518 1521 1524 1527 1530 1532 1535 1537 1538 1540 1541 1542 1543 1544 1545 1546 1547 1548 1548 1549 1549 1549 1550
1455 1463 1474 1491 1496 1500 1509 1503 1471 1473 1473 1475 1477 1479 1481 1484 1486 1488 1491 1494 1497 1500 1502 1505 1509 1513 1516 1519 1522 1525 1528 1530 1532 1534 1536 1537 1539 1540 1541 1542 1543 1544 1545 1545 1546 1546 1547 1547 1547